This is the latest recevied weather packets stored in our database for station/object F5OZP-13. If no packets are shown the sender has not sent any weather packets the latest 10 day(s).
| Time | Temp. | Humidity | Pressure | Rain* | Wind** | Luminosity | Snow |
|---|---|---|---|---|---|---|---|
| 1777550603 | 24.44° C | 99% | 1017.6 hPa | - | - | 41 W/m² | - |
| 1777550295 | 24.44° C | 99% | 1017.5 hPa | - | - | 42 W/m² | - |
| 1777549987 | 25.56° C | 99% | 1017.6 hPa | - | - | 42 W/m² | - |
| 1777549679 | 24.44° C | 99% | 1017.6 hPa | - | - | 41 W/m² | - |
| 1777549371 | 24.44° C | 99% | 1017.8 hPa | - | - | 42 W/m² | - |
| 1777549071 | 25.56° C | 99% | 1017.7 hPa | - | - | 42 W/m² | - |
| 1777548754 | 26.67° C | 99% | 1017.7 hPa | - | - | 41 W/m² | - |
| 1777548446 | 24.44° C | 99% | 1017.7 hPa | - | - | 40 W/m² | - |
| 1777548138 | 24.44° C | 99% | 1017.7 hPa | - | - | 41 W/m² | - |
| 1777547830 | 25° C | 99% | 1017.7 hPa | - | - | 38 W/m² | - |
| 1777547522 | 24.44° C | 99% | 1017.8 hPa | - | - | 37 W/m² | - |
| 1777547226 | 24.44° C | 99% | 1017.8 hPa | - | - | 37 W/m² | - |
| 1777546910 | 23.33° C | 99% | 1017.8 hPa | - | - | 36 W/m² | - |
| 1777546602 | 22.78° C | 99% | 1017.9 hPa | - | - | 38 W/m² | - |
| 1777546294 | 23.89° C | 99% | 1017.9 hPa | - | - | 39 W/m² | - |
| 1777545985 | 23.89° C | 99% | 1017.9 hPa | - | - | 0 W/m² | - |
| 1777545677 | 24.44° C | 99% | 1017.8 hPa | - | - | 39 W/m² | - |
| 1777545377 | 22.22° C | 99% | 1017.8 hPa | - | - | 38 W/m² | - |
| 1777545061 | 22.78° C | 99% | 1017.8 hPa | - | - | 3 W/m² | - |
| 1777544753 | 23.33° C | 99% | 1017.8 hPa | - | - | 0 W/m² | - |
| 1777544445 | 25.56° C | 99% | 1017.6 hPa | - | - | 0 W/m² | - |
| 1777544136 | 26.11° C | 99% | 1017.6 hPa | - | - | 0 W/m² | - |
| 1777543828 | 26.11° C | 99% | 1017.5 hPa | - | - | 33 W/m² | - |
| 1777543533 | 26.11° C | 99% | 1017.5 hPa | - | - | 28 W/m² | - |
| 1777543217 | 25° C | 99% | 1017.5 hPa | - | - | 19 W/m² | - |
* Rain since midnight (hover to see other rain measurements)
** Current wind speed in m/s (hover to see current wind gust speed)